Regional Weather Roundup
Issued by NWS Upton, NY

Current Version | Previous Version | Graphics & Text | Print | Product List | Glossary Off
Versions: 1 2 3 4 5 6 7 8 9 10 11 12 13 14 15 16 17 18 19 20 21 22 23 24 25 26 27 28 29 30 31 32 33 34 35 36 37 38 39 40 41 42 43 44 45 46 47 48 49 50

342
ASUS41 KOKX 180209
RWROKX

Regional Weather Roundup
National Weather Service New York NY
900 PM EST WED JAN 17 2018

Note: "FAIR" indicates few or no clouds below 12,000 feet with no
significant weather and/or obstructions to visibility.

NYZ071-072-176-178-NJZ106-104-180300-
New York City Metro Area

CITY           SKY/WX    TMP DP  RH WIND       PRES   REMARKS
Central Park   CLOUDY    24  13  62 W8        30.20R WCI  15
Bronx Bot Gard   N/A     25  14  63 N10       30.18F WCI  15
Bronx Lehman C   N/A     25  16  68 NW13        N/A  WCI  13
LaGuardia Arpt CLOUDY    26  15  63 NW14      30.18S WCI  14
Queens College   N/A     27  16  63 N12         N/A  WCI  16
Kennedy Intl   CLOUDY    26  17  68 NW16      30.18S WCI  14
Breezy Point     N/A    N/A N/A N/A NW12G18     N/A
Brooklyn Coll    N/A     27  14  59 NW13        N/A  WCI  16
Staten Island    N/A     25  12  58 NW12        N/A  WCI  14
Newark/Liberty MOCLDY    24  11  57 NW12      30.20S WCI  13
Teterboro      CLOUDY    23  12  62 NW13      30.18F WCI  11
$$

NYZ177-179-078>081-180300-
Long Island New York

CITY           SKY/WX    TMP DP  RH WIND       PRES   REMARKS
Jones Beach      N/A    N/A N/A N/A NW16        N/A
Wantagh          N/A     28  21  74 NW9         N/A  WCI  20
Matinecock Pt    N/A    N/A N/A N/A NW13        N/A
Farmingdale    CLOUDY    28  22  78 NW7       30.16R WCI  21
MacArthur/ISP  CLOUDY    30  23  75 N13       30.13S WCI  20
Shirley        FAIR      29  23  78 NW17      30.13F WCI  17
Mt Sinai Harb    N/A    N/A N/A N/A NW9         N/A
Westhampton    CLOUDY    31  27  85 NW12      30.13F WCI  22
East Hampton   CLOUDY    32  31  98 NW5       30.09F WCI  27
Southold         N/A     32  28  86 NW14        N/A  WCI  22
Montauk          N/A     36  33  89 NW9       30.10S WCI  29
$$

NYZ052-065-067-180300-
Hudson Valley

CITY           SKY/WX    TMP DP  RH WIND       PRES   REMARKS
White Plains   MOCLDY    25  20  81 NW9G21    30.13S WCI  15
Larchmont Harb   N/A    N/A N/A N/A NW12        N/A
Croton On Huds   N/A    N/A N/A N/A NW9         N/A
Somers           N/A     23  19  86 N3          N/A
Brewster         N/A     21  18  86 N6          N/A  WCI  14
Newburgh       CLOUDY    21  16  79 NW9       30.18R WCI  11
Montgomery     CLOUDY    19   8  62 NW14      30.16S WCI   6
Otisville        N/A     18   9  68 NW7         N/A  WCI   8
Warwick          N/A     18   9  68 NW5         N/A  WCI  11
Suffern          N/A     21  12  68 N9          N/A  WCI  11
Poughkeepsie   CLOUDY    23  15  71 N8        30.18R WCI  14
Albany         FAIR      13   6  74 CALM      30.20F
$$

NJZ001-105-106-008-010-013-015-019>022-104-180300-
New Jersey

CITY           SKY/WX    TMP DP  RH WIND       PRES   REMARKS
Newark/Liberty MOCLDY    24  11  57 NW12      30.20S WCI  13
Teterboro      CLOUDY    23  12  62 NW13      30.18F WCI  11
Caldwell       FAIR      20   8  60 VRB5      30.20F WCI  13
Somerville     FAIR      21  10  62 NW8       30.20S WCI  11
Linden         FAIR      24  10  57 N9        30.21S WCI  14
Perth Amboy      N/A    N/A N/A N/A NW15        N/A
Sussex         FAIR      18   7  62 CALM      30.18F
Andover        NOT AVBL
Trenton        FAIR      22   9  57 NW9       30.20S WCI  12
Millville      FAIR      24  14  65 NW14G20   30.23R WCI  12
Atlantic City  FAIR      26  15  63 NW15      30.21R WCI  14
Wrightstown    FAIR      23  12  63 N9        30.18S WCI  13
Toms River     FAIR      23  14  68 NW13      30.21S WCI  11
Belmar         FAIR      23  13  65 NW15      30.19S WCI  10
$$

PAZ047>061-062-071-180300-
Eastern Pennsylvania

CITY           SKY/WX    TMP DP  RH WIND       PRES   REMARKS
Philadelphia   CLOUDY    24   8  50 NW15      30.26R WCI  11
Allentown      FAIR      14   4  64 CALM      30.22F
Scranton       FAIR      12   7  80 SW3       30.18F
$$

CTZ002-004>006-009-010-012-RIZ004-006-007-MAZ004-011-015-180300-
Southern New England

 In CT

CITY           SKY/WX    TMP DP  RH WIND       PRES   REMARKS
Bradley Intl   MOCLDY    24  16  71 NW12      30.13S WCI  13
Hartford       CLOUDY    27  17  66 N12       30.15R WCI  17
Danbury        MOCLDY    24  16  71 NW9       30.15R WCI  14
Wtrbury/Oxford FAIR      21  16  81 NW10      30.12R WCI  10
Norwalk Harbor   N/A    N/A N/A N/A NW15        N/A
Bridgeport     CLOUDY    27  19  72 NW12      30.15R WCI  17
Meriden        CLOUDY    24  16  71 VRB5      30.15R WCI  18
New Haven      CLOUDY    28  19  69 N14G20    30.14R WCI  17
Chester        CLOUDY    28  23  80 CALM      30.11R
Groton         CLOUDY    34  30  85 NW8       30.09S WCI  27
Willimantic    CLOUDY    30  25  81 NW8       30.12R WCI  22

 In RI

CITY           SKY/WX    TMP DP  RH WIND       PRES   REMARKS
Providence     CLOUDY    34  32  92 NW6       30.10R WCI  29
Block Island   CLOUDY    34  34 100 NW5       30.08S WCI  30
Westerly       CLOUDY    34  34 100 VRB3      30.10R FOG

In MA

CITY           SKY/WX    TMP DP  RH WIND       PRES   REMARKS
Boston         FLURRIES  32  29  88 NW8       30.08S WCI  25
Worcester      CLOUDY    28  24  85 NW12      30.03F WCI  18
Westfield      FAIR      21  15  78 N9        30.12S WCI  11
Provincetown   MIX PCPN  36  35  96 NW10      30.06  FOG     WCI  28
Nantucket      CLOUDY    35  35 100 NW12      30.07R WCI  27
$$

ANZ330-335-338-340-345-350-353-355-180300-
Coastal Marine Observations


STATION/POSITION TIME  SKY/WX   TEMP    WIND        PRES    VSBY  WAVE
                                AIR SEA DIR/SP/G                  HT/PER
                 (UTC)          (F)     (DEG/KT/KT) (MB)    (MI)  (FT/S)
NY Harb Entrance 0150            29 41  320/ 17/ 21 1020.9          4/11
20 S Fire Island 0050            32 42  320/ 16/ 19 1020.9          5/ 7
15 E Barnegat Li 0130               42                N/A           5/11
Hudson Canyon    0150            38 50  320/ 16/ 19 1019.3          6/11
Kings Point      0148            25 32  350/ 13/ 15 1022.9
Execution Rocks  NOT AVBL
Western LI Sound NOT AVBL
Central LI Sound NOT AVBL
Robbins Reef     0148            24     330/ 15/ 20 1023.0
$$


>>>>>>>>>>>>>>>>>>>>>>>>>>>> KEY <<<<<<<<<<<<<<<<<<<<<<<<<<<
>                                                          <
>     SKY/WX - Sky Condition/Present Weather               <
>     TMP    - Temperature in Fahrenheit                   <
>     DP     - Dew Point in Fahrenheit                     <
>     RH     - Relative Humidity in Percent                <
>     WIND   - Direction (from) and Speed in MPH           <
>     PRES   - Mean Sea Level Pressure (inches of Hg)      <
>     WCI    - Wind Chill Index                            <
>     VSB    - Visibility in Miles                         <
>     HX     - Heat Index                                  <
>     TC     - Temperature in Celsius                      <
>     VRB    - Varibale Wind Direction                     <
>                                                          <
>>>>>>>>>>>>>>>>>>>>>>>>>>>> KEY <<<<<<<<<<<<<<<<<<<<<<<<<<<




USA.gov is the U.S. government's official web portal to all federal, state and local government web resources and services.